Simultaneous Nadir Overpasses (SNOs) Predictions

Prediction of SNOs between GOES-16 and LANDSAT-8 Satellite Orbit:

Table of predicted SNOs for the next 14.0 days since TLE Epoch: 4/25/2020
Index Date Time (GOES-16) GOES-16 Lat,Lon LANDSAT-8 Lat,Lon Distance(km) Time Diff (sec)
1 04/25/2020 15:02:34 0.04, -75.18 -0.52, -72.44 311.26 80
2 04/26/2020 03:23:58 -0.04, -75.16 -0.59, -77.63 281.29 80
3 04/28/2020 03:09:06 -0.03, -75.17 0.06, -74.68 55.25 80
4 04/30/2020 02:56:54 -0.02, -75.17 0.71, -71.73 391.96 80
5 04/30/2020 15:18:09 0.02, -75.19 0.40, -76.88 192.14 80
6 05/02/2020 15:08:37 0.02, -75.21 -0.25, -73.93 145.31 80
7 05/03/2020 03:30:01 -0.02, -75.19 -0.85, -79.12 446.67 80
8 05/04/2020 14:56:25 0.02, -75.23 -0.90, -70.98 483.46 80
9 05/05/2020 03:17:49 -0.02, -75.22 -0.19, -76.17 108.38 80
10 05/07/2020 03:02:56 -0.01, -75.24 0.40, -73.21 230.49 80
11 05/07/2020 15:24:11 0.01, -75.27 0.65, -78.38 353.28 80




NCC Satellite Simultaneous Nadir Overpasses (SNOs) Prediction Service
